This is the latest recevied weather packets stored in our database for station/object KC4JIR. If no packets are shown the sender has not sent any weather packets the latest 10 day(s).
| Time | Temp. | Humidity | Pressure | Rain* | Wind** | Luminosity | Snow |
|---|---|---|---|---|---|---|---|
| 1777944659 | 17.22° C | 65% | 1013 hPa | 0 mm | - | 0 W/m² | - |
| 1777944356 | 17.22° C | 60% | 1013.1 hPa | 0 mm | - | 0 W/m² | - |
| 1777944053 | 17.22° C | 62% | 1012.9 hPa | 0 mm | - | 0 W/m² | - |
| 1777943749 | 17.22° C | 62% | 1012.9 hPa | 0 mm | - | 0 W/m² | - |
| 1777943447 | 17.78° C | 60% | 1012.9 hPa | 0 mm | - | 0 W/m² | - |
| 1777943142 | 17.78° C | 62% | 1012.8 hPa | 0 mm | - | 0 W/m² | - |
| 1777942838 | 17.78° C | 61% | 1012.8 hPa | 0 mm | - | 0 W/m² | - |
| 1777942535 | 17.78° C | 62% | 1012.7 hPa | 0 mm | - | 0 W/m² | - |
| 1777942233 | 18.33° C | 59% | 1012.9 hPa | 0 mm | - | 0 W/m² | - |
| 1777941929 | 18.33° C | 61% | 1012.5 hPa | 0 mm | - | 0 W/m² | - |
| 1777941626 | 18.33° C | 56% | 1013 hPa | 0 mm | - | 0 W/m² | - |
| 1777941323 | 18.89° C | 53% | 1012.8 hPa | 0 mm | - | 0 W/m² | - |
| 1777941021 | 18.89° C | 54% | 1012.6 hPa | 0 mm | - | 0 W/m² | - |
| 1777940720 | 18.89° C | 55% | 1012.5 hPa | 0 mm | - | 0 W/m² | - |
| 1777940415 | 18.89° C | 55% | 1012.7 hPa | 0 mm | - | 0 W/m² | - |
| 1777940112 | 19.44° C | 56% | 1012.6 hPa | 0 mm | - | 1 W/m² | - |
| 1777939809 | 20° C | 58% | 1012.5 hPa | 0 mm | - | 3 W/m² | - |
| 1777939506 | 20° C | 58% | 1012.4 hPa | 0 mm | - | 4 W/m² | - |
| 1777939203 | 20.56° C | 54% | 1012.4 hPa | 0 mm | - | 5 W/m² | - |
| 1777938900 | 20.56° C | 53% | 1012.6 hPa | 0 mm | - | 8 W/m² | - |
| 1777938294 | 21.67° C | 51% | 1012.7 hPa | 0 mm | - | 39 W/m² | - |
| 1777937990 | 21.67° C | 51% | 1012.7 hPa | 0 mm | - | 39 W/m² | - |
| 1777937686 | 21.67° C | 51% | 1012.5 hPa | 0 mm | - | 39 W/m² | - |
| 1777937383 | 21.67° C | 51% | 1012.6 hPa | 0 mm | - | 41 W/m² | - |
| 1777937080 | 21.67° C | 51% | 1012.6 hPa | 0 mm | - | 38 W/m² | - |
* Rain latest hour (hover to see other rain measurements)
** Current wind speed in m/s (hover to see current wind gust speed)